Weather History for Ankara, Turkey

Change the Weather History Date:

Saturday, September 28, 2013

  Actual Average Record
Temperature  
Mean Temperature 60 °F -  
Max Temperature 73 °F 65 °F 87 °F (2004)
Min Temperature 47 °F 39 °F 39 °F (1997)
Degree Days  
Heating Degree Days 5    
Growing Degree Days 10 (Base 50)    
Moisture  
Dew Point 41 °F    
Average Humidity 49    
Maximum Humidity 76    
Minimum Humidity 18    
Precipitation  
Precipitation 0.00 in - - ()
Sea Level Pressure  
Sea Level Pressure 29.96 in    
Wind  
Wind Speed 4 mph ()    
Max Wind Speed 13 mph    
Max Gust Speed -    
Visibility 6.9 miles    
Events      
Averages and records for this station are not official NWS values.
T = Trace of Precipitation, MM = Missing Value Source: Averaged Metar Reports

Daily Weather History Graph

Daily Weather History Graph

Search for Another Location

Airport:

Trip Planner

Search our weather history database for the weather conditions in past years. The results will help you decide how hot, cold, wet, or windy it might be!

Date:

Astronomy

Sep. 28, 2013 Rise Set
Actual Time 6:41 AM EEST 6:35 PM EEST
Civil Twilight 6:14 AM EEST 7:02 PM EEST
Nautical Twilight 5:42 AM EEST 7:33 PM EEST
Astronomical Twilight 5:10 AM EEST 8:05 PM EEST
Moon 12:10 AM EEST (9/28) 2:41 PM EEST (9/28)
Length of Visible Light 12h 48m
Length of Day
11h 54m
Last Quarter, 39% of the Moon is Illuminated
Sep 28
Last Quarter
Oct 5
New
Oct 12
First Quarter
Oct 19
Full
Oct 27
Last Quarter

Hourly Weather History & Observations

Time (EEST) Temp. Dew Point Humidity Pressure Visibility Wind Dir Wind Speed Gust Speed Precip Events Conditions
12:20 AM 59.0 °F 44.6 °F 59% 29.95 in - NNE 5.8 mph - N/A   Clear
12:50 AM 57.2 °F 42.8 °F 59% 29.95 in - North 5.8 mph - N/A   Clear
1:20 AM 55.4 °F 41.0 °F 58% 29.95 in - Variable 2.3 mph - N/A   Clear
1:50 AM 55.4 °F 42.8 °F 63% 29.95 in - ENE 3.5 mph - N/A   Clear
2:20 AM 53.6 °F 41.0 °F 62% 29.95 in - Calm Calm - N/A   Clear
2:50 AM 55.4 °F 42.8 °F 63% 29.95 in - Calm Calm - N/A   Clear
3:00 AM 55 °F 43 °F 53% 29.84 in 12 mi Calm Calm - -   Partly Cloudy
3:20 AM 53.6 °F 41.0 °F 62% 29.95 in - Calm Calm - N/A   Clear
3:50 AM 51.8 °F 41.0 °F 67% 29.95 in - Variable 2.3 mph - N/A   Clear
4:20 AM 51.8 °F 41.0 °F 67% 29.95 in - North 1.2 mph - N/A   Clear
4:50 AM 51.8 °F 41.0 °F 67% 29.95 in - North 1.2 mph - N/A   Clear
5:20 AM 50.0 °F 41.0 °F 71% 29.98 in - NNE 1.2 mph - N/A   Clear
5:50 AM 50.0 °F 41.0 °F 71% 29.98 in - NE 1.2 mph - N/A   Clear
6:20 AM 50.0 °F 41.0 °F 71% 29.98 in - Variable 1.2 mph - N/A   Clear
6:50 AM 51.8 °F 41.0 °F 67% 29.98 in - ENE 4.6 mph - N/A   Clear
7:20 AM 51.8 °F 42.8 °F 71% 29.98 in - Variable 3.5 mph - N/A   Clear
7:50 AM 50.0 °F 42.8 °F 76% 29.98 in - Variable 2.3 mph - N/A   Clear
8:20 AM 51.8 °F 42.8 °F 71% 29.98 in - West 3.5 mph - N/A   Clear
8:50 AM 55.4 °F 44.6 °F 67% 29.98 in 6.2 mi Variable 2.3 mph - N/A   Scattered Clouds
9:00 AM 55 °F 43 °F 55% 29.91 in 12 mi 2.3 mph - -   Scattered Clouds
9:20 AM 59.0 °F 46.4 °F 63% 29.98 in 6.2 mi NW 4.6 mph - N/A   Scattered Clouds
9:50 AM 60.8 °F 44.6 °F 55% 29.98 in 6.2 mi Variable 2.3 mph - N/A   Partly Cloudy
10:20 AM 62.6 °F 42.8 °F 48% 30.01 in 6.2 mi Variable 2.3 mph - N/A   Partly Cloudy
10:50 AM 66.2 °F 42.8 °F 43% 30.01 in 6.2 mi Variable 3.5 mph - N/A   Partly Cloudy
11:20 AM 66.2 °F 42.8 °F 43% 29.98 in 6.2 mi West 6.9 mph - N/A   Partly Cloudy
11:50 AM 68.0 °F 42.8 °F 40% 29.98 in 6.2 mi WSW 6.9 mph - N/A   Scattered Clouds
12:20 PM 68.0 °F 41.0 °F 37% 29.98 in 6.2 mi WNW 6.9 mph - N/A   Scattered Clouds
12:50 PM 68.0 °F 39.2 °F 35% 29.98 in 6.2 mi West 9.2 mph - N/A   Scattered Clouds
1:20 PM 69.8 °F 39.2 °F 33% 29.98 in 6.2 mi West 9.2 mph - N/A   Scattered Clouds
1:50 PM 69.8 °F 39.2 °F 33% 29.95 in 6.2 mi SSW 5.8 mph - N/A   Scattered Clouds
2:20 PM 71.6 °F 39.2 °F 31% 29.95 in 6.2 mi West 4.6 mph - N/A   Scattered Clouds
2:50 PM 71.6 °F 39.2 °F 31% 29.95 in 6.2 mi West 12.7 mph - N/A   Scattered Clouds
3:00 PM 72 °F 38 °F 18% 29.85 in 12 mi West 12.7 mph - -   Partly Cloudy
3:20 PM 71.6 °F 39.2 °F 31% 29.95 in 6.2 mi West 10.4 mph - N/A   Scattered Clouds
3:50 PM 71.6 °F 37.4 °F 29% 29.95 in 6.2 mi West 11.5 mph - N/A   Scattered Clouds
4:20 PM 71.6 °F 37.4 °F 29% 29.95 in 6.2 mi WSW 8.1 mph - N/A   Scattered Clouds
4:50 PM 71.6 °F 39.2 °F 31% 29.95 in 6.2 mi West 10.4 mph - N/A   Scattered Clouds
5:20 PM 71.6 °F 39.2 °F 31% 29.95 in 6.2 mi West 9.2 mph - N/A   Scattered Clouds
5:50 PM 69.8 °F 37.4 °F 31% 29.95 in 6.2 mi West 9.2 mph - N/A   Scattered Clouds
6:20 PM 69.8 °F 39.2 °F 33% 29.95 in 6.2 mi West 3.5 mph - N/A   Scattered Clouds
6:50 PM 69.8 °F 39.2 °F 33% 29.95 in 6.2 mi West 11.5 mph - N/A   Scattered Clouds
7:20 PM 68.0 °F 39.2 °F 35% 29.95 in 6.2 mi West 8.1 mph - N/A   Scattered Clouds
7:50 PM 64.4 °F 41.0 °F 42% 29.98 in 6.2 mi West 5.8 mph - N/A   Scattered Clouds
8:20 PM 64.4 °F 39.2 °F 40% 29.98 in 6.2 mi North 4.6 mph - N/A   Scattered Clouds
8:50 PM 62.6 °F 39.2 °F 42% 30.01 in 6.2 mi Variable 2.3 mph - N/A   Scattered Clouds
9:00 PM 62 °F 38 °F 29% 29.93 in 12 mi West 2.3 mph - -   Partly Cloudy
9:20 PM 60.8 °F 37.4 °F 42% 30.01 in 6.2 mi NE 4.6 mph - N/A   Scattered Clouds
9:50 PM 59.0 °F 37.4 °F 45% 30.01 in 6.2 mi North 6.9 mph - N/A   Scattered Clouds
10:20 PM 57.2 °F 37.4 °F 48% 30.01 in 6.2 mi NNE 4.6 mph - N/A   Scattered Clouds
10:50 PM 57.2 °F 37.4 °F 48% 30.01 in 6.2 mi ENE 4.6 mph - N/A   Partly Cloudy
11:20 PM 55.4 °F 37.4 °F 51% 30.01 in 6.2 mi NNE 1.2 mph - N/A   Partly Cloudy
11:50 PM 55.4 °F 37.4 °F 51% 30.01 in - NNW 5.8 mph - N/A   Clear